Hourly Data Report for May 15, 2004

SHERBROOKE A
QUEBEC

45°26'00.000" N
71°41'00.000" W
241.40 m
7028124
71610
YSC

Download Data

Hourly Data (May 2004)
Hourly Data Report for May 15, 2004
TIME
LST
Temp Definition
°C
Dew Point Definition
°C
Rel Hum Definition
%
Precip. Amount Definition
mm

Wind Dir Definition
10's deg

Wind Spd Definition
km/h
Visibility Definition
km
Stn Press Definition
kPa
Hmdx Definition


Wind Chill Definition


Weather Definition


00:00 20.5 14.7 69   23 6 12.9 98.66      
01:00 20.4 15.1 72   19 7 11.3 98.61      
02:00 19.9 15.3 75   19 4 11.3 98.57      
03:00 20.0 15.5 75   19 9 9.7 98.54      
04:00 19.6 15.5 77   20 7 9.7 98.54      
05:00 19.5 15.7 79   23 4 8.0 98.55      
06:00 20.9 16.2 74   21 7 8.0 98.59 26    
07:00 22.3 16.9 71   23 11 9.7 98.59 28   Haze
08:00 22.5 17.0 71   23 13 9.7 98.61 28   Haze
09:00 23.7 17.0 66   23 19 12.9 98.61 29   Mostly Cloudy
10:00 23.6 17.2 67   22 11 24.1 98.59 29   Cloudy
11:00 23.3 16.7 66   25 17 19.3 98.59 28   Cloudy
12:00 22.2 18.1 78   27 17 19.3 98.63 28   Cloudy
13:00 23.0 17.4 71   26 17 24.1 98.62 29   Mostly Cloudy
14:00 21.7 15.8 69   25 20 24.1 98.63 26   Cloudy
15:00 21.6 15.4 68   27 17 24.1 98.63 26   Mostly Cloudy
16:00 22.0 14.6 63   27 24 24.1 98.63 26   Mostly Cloudy
17:00 21.6 14.1 62   25 15 15.0 98.67 25    
18:00 20.1 13.1 64   34 9 15.0 98.74      
19:00 17.6 10.4 63   33 13 15.0 98.85      
20:00 16.2 9.1 63   36 11 15.0 98.96     Rain
21:00 14.7 8.6 67   33 11 15.0 99.04      
22:00 13.7 7.7 67   32 9 15.0 99.10      
23:00 13.0 6.6 65   33 7 15.0 99.15      

Notes on Data Quality.

Legend

  • E = Estimated
  • M = Missing
  • NA = Not Available*
  • [empty] = Indicates an unobserved value
Date modified: